EXPRESS-AM6

Last updated on Tue Jan 06 2026 00:02:52 GMT+0000 (Coordinated Universal Time)

1 40277U 14064A 26005.61125933 .00000099 00000+0 00000+0 0 9994 2 40277 0.0213 294.1418 0001281 36.6643 47.4346 1.00263814 39934
UTC large
Height (km)
Speed (km/s)
/
Latitude / Longitude
Inclination (degrees)
Orbital Period (minutes)
Azimuth
Elevation
Range (km)
Doppler Factor

Next 0 passes for location: London (51.5072 / 0.1276)

Sorry there are no passes over London.
EXPRESS-AM6